Ord, NE

7:10 AM CDT on September 22, 2017 (GMT -0500)
Sharp

Weather History for KODX - April, 2014

Change the Weather History Date:

Tuesday, April 15, 2014

  Actual Average Record
Temperature  
Mean Temperature 39 °F 49 °F  
Max Temperature 62 °F 61 °F 91 °F (2002)
Min Temperature 16 °F 36 °F 16 °F (2014)
Degree Days  
Heating Degree Days 26 16  
Month to date heating degree days 301 280  
Since 1 July heating degree days 6143  
Cooling Degree Days 0 0  
Month to date cooling degree days 0 0  
Year to date cooling degree days 0 0  
Moisture  
Dew Point 23 °F    
Average Humidity 59    
Maximum Humidity 88    
Minimum Humidity 29    
Precipitation  
Precipitation 0.00 in 0.08 in 1.54 in (1900)
Month to date precipitation 0.63 1.07  
Year to date precipitation 1.08 3.33  
Sea Level Pressure  
Sea Level Pressure 29.98 in    
Wind  
Wind Speed 13 mph (South)    
Max Wind Speed 26 mph    
Max Gust Speed 35 mph    
Visibility 10 miles    
Events      
T = Trace of Precipitation, MM = Missing Value Source: NWS Daily Summary

Daily Weather History Graph

Daily Weather History Graph

Search for Another Location

Airport or City:

Trip Planner

Search our weather history database for the weather conditions in past years. The results will help you decide how hot, cold, wet, or windy it might be!

Date:

Astronomy

Apr. 15, 2014 Rise Set
Actual Time 6:55 AM CDT 8:16 PM CDT
Civil Twilight 6:27 AM CDT 8:45 PM CDT
Nautical Twilight 5:52 AM CDT 9:20 PM CDT
Astronomical Twilight 5:15 AM CDT 9:56 PM CDT
Moon 8:59 PM CDT (4/15) 7:04 AM CDT (4/15)
Length of Visible Light 14h 18m
Length of Day
13h 20m
Full, 100% of the Moon is Illuminated
Apr 15
Full
Apr 22
Last Quarter
Apr 29
New
May 6
First Quarter
May 14
Full

Hourly Weather History & Observations

Time (CDT) Temp. Windchill Dew Point Humidity Pressure Visibility Wind Dir Wind Speed Gust Speed Precip Events Conditions
12:53 AM 26.1 °F 20.5 °F 16.0 °F 66% 30.24 in 10.0 mi ENE 4.6 mph - N/A   Clear
1:53 AM 19.9 °F 14.9 °F 14.0 °F 78% 30.24 in 10.0 mi SW 3.5 mph - N/A   Scattered Clouds
2:53 AM 19.9 °F 14.9 °F 14.0 °F 78% 30.21 in 10.0 mi SW 3.5 mph - N/A   Clear
3:53 AM 18.0 °F 9.8 °F 12.9 °F 81% 30.21 in 10.0 mi SW 5.8 mph - N/A   Clear
4:53 AM 19.0 °F - 14.0 °F 81% 30.20 in 10.0 mi Calm Calm - N/A   Clear
5:53 AM 19.0 °F - 14.0 °F 81% 30.20 in 10.0 mi Calm Calm - N/A   Clear
6:53 AM 17.1 °F 11.7 °F 14.0 °F 88% 30.18 in 10.0 mi SE 3.5 mph - N/A   Clear
7:53 AM 23.0 °F - 19.0 °F 85% 30.16 in 10.0 mi Calm Calm - N/A   Clear
8:53 AM 32.0 °F 24.8 °F 24.1 °F 73% 30.13 in 10.0 mi South 8.1 mph - N/A   Clear
9:53 AM 36.0 °F 26.0 °F 21.0 °F 55% 30.11 in 10.0 mi South 17.3 mph 24.2 mph N/A   Clear
10:53 AM 39.9 °F 31.1 °F 19.9 °F 45% 30.08 in 10.0 mi South 17.3 mph 26.5 mph N/A   Clear
11:53 AM 43.0 °F 35.1 °F 23.0 °F 45% 30.05 in 10.0 mi South 17.3 mph 28.8 mph N/A   Clear
12:53 PM 46.9 °F - 25.0 °F 42% 30.00 in 10.0 mi SSE 17.3 mph 26.5 mph N/A   Clear
1:53 PM 50.0 °F - 25.0 °F 38% 29.95 in 10.0 mi South 21.9 mph 31.1 mph N/A   Clear
2:53 PM 53.1 °F - 27.0 °F 37% 29.90 in 10.0 mi South 23.0 mph 32.2 mph N/A   Clear
3:53 PM 55.0 °F - 28.0 °F 35% 29.87 in 10.0 mi South 23.0 mph 32.2 mph N/A   Clear
4:53 PM 57.0 °F - 28.0 °F 33% 29.82 in 10.0 mi South 15.0 mph - N/A   Clear
5:53 PM 59.0 °F - 28.9 °F 32% 29.77 in 10.0 mi South 13.8 mph - N/A   Clear
6:53 PM 61.0 °F - 28.0 °F 29% 29.73 in 10.0 mi South 21.9 mph 29.9 mph N/A   Clear
7:53 PM 57.9 °F - 30.0 °F 35% 29.70 in 10.0 mi South 18.4 mph - N/A   Clear
8:53 PM 54.0 °F - 30.0 °F 40% 29.70 in 10.0 mi South 15.0 mph - N/A   Clear
9:53 PM 51.8 °F - 30.2 °F 44% 29.67 in 10.0 mi South 13.8 mph - N/A   Clear
10:53 PM 52.0 °F - 28.9 °F 41% 29.68 in 10.0 mi South 15.0 mph - N/A   Clear
11:53 PM 50.0 °F - 28.9 °F 44% 29.66 in 10.0 mi South 16.1 mph 23.0 mph N/A   Clear